Location: Sternwarte ZA, Rosenfeld-Brittheim
(48.2889°N, 8.6789°E)
Time: 21:33:15
(UTC+02:00)

ISS - Pass Details

Date: 21 May 2017
Orbit: 402 x 409 km, 51.6° (Epoch: 25 May)

Event Time Altitude Azimuth Distance (km) Brightness Sun altitude
Rises 04:32:01 0° 291° (WNW) 2,330 -0.2 -9.4°
Reaches altitude 10° 04:34:06 10° 293° (WNW) 1,467 -1.2 -9.2°
Maximum altitude 04:37:23 74° 19° (NNE) 425 -3.6 -8.8°
Drops below altitude 10° 04:40:39 10° 105° (ESE) 1,458 -0.6 -8.4°
Sets 04:42:44 0° 107° (ESE) 2,314 0.4 -8.2°
